Regional Weather Roundup
Issued by NWS

Home | Current Version | Previous Version | Text Only | Print | Product List | Glossary On
Versions: 1 2 3 4 5 6 7 8 9 10 11 12 13 14 15 16 17 18 19 20 21 22 23 24 25 26 27 28 29 30 31 32 33 34 35 36 37 38 39 40 41 42 43 44 45 46 47 48 49 50
000
ASUS43 KDTX 301901
RWRMI
MICHIGAN HOURLY REGIONAL WEATHER ROUNDUP
NATIONAL WEATHER SERVICE DETROIT/PONTIAC MI
300 PM EDT MON MAR 30 2015

NOTE: "FAIR" INDICATES FEW OR NO CLOUDS BELOW 12,000 FEET WITH NO
SIGNIFICANT WEATHER AND/OR OBSTRUCTION TO VISIBILITY.

MIZ047>049-052>055-059>063-066>070-074>076-081>083-302000-
SOUTHEAST LOWER MICHIGAN

CITY           SKY/WX    TMP DP  RH WIND       PRES   REMARKS
ADRIAN         PTSUNNY   54  25  32 NW20G33   29.93F
ALMA           MOSUNNY   53  23  31 NW22G29   29.89S
ANN ARBOR      MOSUNNY   57  24  28 W28G36    29.89F
BAD AXE        PTSUNNY   43  25  47 NW20G29   29.86R
CARO           PTSUNNY   48  30  50 NW16G22   29.86R
DETROIT CITY   PTSUNNY   56  23  27 NW20G37   29.87S
DETROIT        MOSUNNY   58  25  28 W20G39    29.88F
FLINT          MOSUNNY   56  24  29 NW29G39   29.86F
GROSSE ILE     PTSUNNY   55  18  22 W23G31    29.87F
HILLSDALE      MOSUNNY   55  23  28 NW23G31   29.93F
HOWELL         MOSUNNY   54  22  28 W24G40    29.87F

CITY           SKY/WX    TMP DP  RH WIND       PRES   REMARKS
JACKSON        MOSUNNY   54  21  27 W24G33    29.91F
LAMBERTVILLE   PTSUNNY   55  25  30 W22G32    29.93F
LANSING        SUNNY     54  23  30 W23G39    29.91S
LAPEER         MOCLDY    51  23  33 NW18G32   29.84F
MASON          MOSUNNY   54  24  31 NW21G33   29.90S
MONROE         MOSUNNY   54  27  35 W22G32    29.90S
MT. CLEMENS    PTSUNNY   54  24  32 W24G33    29.82S
PONTIAC        PTSUNNY   53  22  29 W28G37    29.85F
PORT HOPE        N/A     40  30  67 NW7       29.84S
PORT HURON     CLOUDY    50  30  46 NW16G24   29.84S
TRI CITIES     MOSUNNY   52  24  33 NW25G31   29.87R
TROY           PTSUNNY   56  23  28 W23G36    29.87F
SAGINAW HB     MOSUNNY   54  25  32 W28G33    29.86R
$$
MIZ043>046-050>051-056>058-064>065-071>073-077>080-302000-
SOUTHWEST LOWER MICHIGAN

CITY           SKY/WX    TMP DP  RH WIND       PRES   REMARKS
BATTLE CREEK   SUNNY     55  22  27 NW26G35   29.95F
BENTON HARBOR  MOSUNNY   51  29  42 W18       30.01F
BIG RAPIDS     SUNNY     48  25  39 NW14G28   29.90R
COLDWATER      MOSUNNY   55  22  28 W22G31    29.95F
FREMONT        FAIR      51  21  30 NW23G29   29.93R
HOLLAND        SUNNY     52  32  46 W17       29.98F
GRAND RAPIDS   MOSUNNY   52  26  36 W22G31    29.94S
IONIA          FAIR      53  23  30 NW21G36   29.90S
KALAMAZOO      MOSUNNY   54  27  35 W21       29.97F
LUDINGTON      SUNNY     50  30  46 NW9       29.95S
MARSHALL       MOSUNNY   55  24  29 W17G33    29.93S
MOUNT PLEASANT MOSUNNY   51  24  34 W15G25    29.88S
MUSKEGON       MOSUNNY   50  29  44 W9G20     29.97S
SOUTH HAVEN    SUNNY     52  29  42 W10G21    30.00S
$$
MIZ016>042-302000-
NORTHERN LOWER MICHIGAN

CITY           SKY/WX    TMP DP  RH WIND       PRES   REMARKS
ALPENA         CLOUDY    39  22  50 NW16G28   29.86R WCI  30
BEAVER ISLAND  SUNNY     38  26  63 W8        29.93R WCI  32
BELLAIRE       CLOUDY    40  27  58 W8G17     29.95R
CADILLAC       PTSUNNY   44  28  53 NW16G28   29.91R
CHARLEVOIX     SUNNY     38  29  70 NW14G21   29.96S WCI  30
FRANKFORT      SUNNY     47  24  41 N6        29.95S
GAYLORD        PTSUNNY   36  23  59 W13G23    29.88R WCI  27
GRAYLING       CLOUDY    40  23  51 W13G23    29.90R WCI  32
HARBOR SPRINGS CLOUDY    37  26  65 W12G20    29.91S WCI  29
HOUGHTON LAKE  PTSUNNY   44  22  41 NW21G29   29.89R
MANISTEE       SUNNY     45  28  53 NW10      29.96S
OSCODA         PTSUNNY   45  21  39 NW23G30   29.84S
PELLSTON       PTSUNNY   37  24  59 NW20G28   29.91R WCI  27
ROGERS CITY    CLOUDY    37  27  69 NW14G24   29.88R WCI  28
TRAVERSE CITY  MOSUNNY   44  25  47 NW10      29.93S
$$
MIZ007>008-015-302000-
EASTERN UPPER MICHIGAN

CITY           SKY/WX    TMP DP  RH WIND       PRES   REMARKS
KINROSS        CLOUDY    34  27  75 NW18G25   29.86R WCI  23
MACKINAC ISLAN PTSUNNY   37  25  63 NW12      29.88S WCI  29
NEWBERRY       MOSUNNY   34  24  67 NW14G20   29.90R WCI  25
S. S. MARIE    CLOUDY    33  24  69 W15       29.86R WCI  23
$$
MIZ004>006-011>014-085-302000-
CENTRAL UPPER MICHIGAN

CITY           SKY/WX    TMP DP  RH WIND       PRES   REMARKS
MANISTIQUE     MOSUNNY   39  27  60 W13G20    29.91S WCI  32
ESCANABA       MOSUNNY   45  21  39 NW6       29.89S
MENOMINEE      SUNNY     52  21  30 W8        29.89F
SAWYER-GWINN   MOSUNNY   36  27  69 NE9       29.89S WCI  29
$$
MIZ001>003-009>011-084-302000-
WESTERN UPPER MICHIGAN

CITY           SKY/WX    TMP DP  RH WIND       PRES   REMARKS
IRON MOUNTAIN  SUNNY     50  22  33 NW13G20   29.86F
HOUGHTON       SUNNY     36  23  59 NW12      29.89S WCI  28
COPPER HARBOR    N/A     34  24  67 NE5       29.92F WCI  30
IRONWOOD       MOSUNNY   46  25  42 NW10      29.86F
$$

ABBREVIATIONS USED IN REMARKS
   TC - TEMPERATURE IN CELSIUS
  WCI - WIND CHILL INDEX
   HX - HEAT INDEX
  VSB - VISIBILITY



USA.gov is the U.S. government's official web portal to all federal, state and local government web resources and services.